Flag for Sweden Weather past 2 weeks in Karlstad, Sweden

Now
52 °F

Passing clouds.


Feels Like: 47 °F
Forecast: 36 / 50 °F
Wind: 16 mph from Southwest

Location: Karlstad

Current Time: Apr 26, 2015 at 1:55:28 PM

Latest Report: Apr 26, 2015 at 1:20 PM


Visibility: N/A

Pressure: 29.56 "Hg

Humidity: 41%

Dew point: 28 °F

Location of KarlstadLocation

Historic Weather in Karlstad — Graph

°F

Karlstad temperature yesterday

Maximum temperature yesterday: 54 °F (at 4:20 PM)
Minimum temperature yesterday: 43 °F (at 12:20 AM)
Average temperature yesterday: 46 °F

Past Weeks' High & Low Weather Summary

 TemperatureHumidityPressure
High70 °F (Apr 20, 6:20 PM)100% (Apr 11, 12:20 PM)30.30 "Hg (Apr 11, 12:20 PM)
Low25 °F (Apr 14, 4:50 AM)13% (Apr 20, 12:50 PM)29.42 "Hg (Apr 15, 5:50 PM)
Average46 °F63%29.87 "Hg
* Reported Apr 11 12:20 PM — Apr 26 12:20 PM, Karlstad, Weather by CustomWeather, © 2015

Note: Actual official high and low records may vary slightly from our data, if they occured in-between our weather recording intervals... More about our weather records

Advertising

Karlstad weather history for previous 24 hours

 ConditionsComfort  
Time TempWeatherWind HumidityBarometerVisibility
12:20 PM
Sun, Apr 26
52 °FScattered clouds.13 mph44%29.56 "HgN/A
11:50 AM52 °FPassing clouds.15 mph44%29.56 "HgN/A
11:20 AM48 °FPassing clouds.12 mph54%29.56 "HgN/A
10:50 AM48 °FSunny.13 mph50%29.53 "Hg10 mi
10:20 AM48 °FPassing clouds.10 mph54%29.53 "HgN/A
9:50 AM46 °FPassing clouds.9 mph62%29.53 "HgN/A
9:20 AM45 °FSunny.10 mph66%29.53 "Hg10 mi
8:50 AM45 °FQuite cool.10 mph66%29.53 "HgN/A
8:20 AM43 °FQuite cool.9 mph76%29.53 "HgN/A
7:50 AM41 °FQuite cool.10 mph81%29.53 "HgN/A
7:20 AM41 °FQuite cool.12 mph76%29.50 "HgN/A
6:50 AM39 °FChilly.12 mph81%29.50 "HgN/A
6:20 AM39 °FChilly.12 mph81%29.50 "HgN/A
5:50 AM39 °FChilly.8 mph87%29.50 "HgN/A
5:20 AM41 °FQuite cool.12 mph81%29.47 "HgN/A
4:50 AM41 °FQuite cool.10 mph87%29.47 "HgN/A
4:20 AM43 °FPassing clouds.10 mph87%29.47 "HgN/A
3:50 AM46 °FPartly cloudy.12 mph82%29.45 "HgN/A
3:20 AM46 °FMostly cloudy.10 mph93%29.45 "HgN/A
2:50 AM46 °FFog.12 mph100%29.45 "Hg4 mi
2:20 AM46 °FFog.13 mph100%29.45 "Hg4 mi
1:50 AM46 °FFog.13 mph100%29.45 "Hg3 mi
1:20 AM46 °FFog.12 mph100%29.45 "Hg2 mi
12:50 AM48 °FLight rain. Partly cloudy.12 mph94%29.45 "Hg2 mi
12:20 AM48 °FFog.10 mph94%29.45 "Hg2 mi
11:20 PM
Sat, Apr 25
48 °FFog.13 mph94%29.45 "Hg2 mi
10:50 PM48 °FFog.13 mph100%29.45 "Hg2 mi
10:20 PM48 °FFog.12 mph94%29.47 "Hg2 mi
9:50 PM48 °FFog.13 mph94%29.47 "Hg2 mi
9:20 PM48 °FFog.14 mph94%29.47 "Hg2 mi
8:50 PM48 °FPassing clouds.13 mph94%29.47 "Hg3 mi
8:20 PM50 °FScattered clouds.14 mph82%29.47 "Hg5 mi
7:50 PM50 °FPartly sunny.12 mph82%29.47 "HgN/A
7:20 PM50 °FPartly sunny.8 mph88%29.47 "HgN/A
6:50 PM50 °FFog.7 mph88%29.47 "Hg5 mi
6:20 PM50 °FFog.8 mph82%29.47 "Hg5 mi
5:50 PM50 °FFog.10 mph82%29.50 "Hg5 mi
5:20 PM52 °FPartly sunny.12 mph77%29.47 "HgN/A
4:50 PM52 °FBroken clouds.12 mph72%29.50 "HgN/A
4:20 PM54 °FPassing clouds.12 mph72%29.50 "HgN/A
3:50 PM52 °FFog.12 mph77%29.50 "Hg6 mi
3:20 PM50 °FFog.10 mph82%29.50 "Hg5 mi
2:50 PM48 °FFog.9 mph87%29.50 "Hg4 mi
2:20 PM46 °FFog.7 mph93%29.53 "Hg3 mi
1:50 PM46 °FDrizzle. Partly sunny.9 mph87%29.53 "Hg3 mi
1:20 PM46 °FDrizzle. Overcast.8 mph93%29.56 "Hg3 mi
Weather by CustomWeather, © 2015

See weather overviewHow to use our weather pages